Temperature
20 20 20 19 19 19 19 19 19 19 19 19 19 19 19 19 19 19 19 18 18 18 18 18 18 18 18 18 18 18 18 18 18 18 18 18 18 18 18 18 17 17 17
20 20 20 19 19 19 19 19 19 19 19 19 19 19 19 19 18 18 18 18 18 18 18 18 18 18 18 18 18 18 18 18 18 18 18 18 18 18 18 17 17 17 17
20 20 20 20 19 19 19 19 19 19 19 19 19 19 19 19 18 18 18 18 18 18 18 18 18 18 18 18 18 18 18 18 18 18 18 18 18 18 18 17 17 17 17
20 20 20 20 19 19 19 19 19 19 19 19 19 19 19 19 19 18 18 18 18 18 18 18 18 18 18 18 18 18 18 18 18 18 18 18 18 18 18 17 17 17 17
20 20 20 20 19 19 19 19 19 19 19 19 19 19 19 19 19 18 18 18 18 18 18 18 18 18 18 18 18 18 18 18 18 18 18 18 18 18 18 17 17 17 17
20 20 20 20 19 19 19 19 19 19 19 19 19 19 19 19 18 18 18 18 18 18 18 18 18 18 18 18 18 18 18 18 18 18 18 18 18 18 18 17 17 17 17
20 20 20 20 20 19 19 19 19 19 19 19 19 19 19 18 18 18 18 19 19 18 18 18 18 18 18 18 18 18 18 18 18 18 18 18 18 18 18 17 17 17 17
21 20 20 20 20 19 19 19 19 19 19 19 19 19 19 19 19 18 19 19 18 19 19 18 18 18 18 19 18 18 18 18 18 18 18 18 18 18 18 18 17 17 17
21 20 20 20 19 19 19 19 19 19 19 19 19 19 19 19 19 18 19 19 19 19 19 18 18 18 18 19 19 18 18 18 18 18 18 18 18 18 18 18 17 17 17
21 21 20 20 20 19 19 19 19 19 19 19 19 19 19 19 19 18 19 19 19 19 19 19 19 19 19 19 19 19 19 18 18 18 18 18 18 18 18 17 17 17 17
21 21 21 20 20 19 19 19 19 19 19 19 19 19 19 18 18 18 18 18 18 19 19 19 19 19 19 19 19 19 18 18 18 18 18 18 18 18 18 17 17 17 17
21 21 21 21 20 20 19 19 19 19 19 19 19 19 18 18 18 18 18 18 18 19 19 19 18 18 18 18 18 18 18 18 18 18 18 18 18 18 18 17 17 17 17
22 21 21 21 20 20 20 19 19 19 19 19 19 19 18 18 18 18 18 18 18 18 18 18 18 18 18 18 18 18 18 18 18 18 18 18 18 18 18 17 17 17 17
22 21 21 21 20 20 20 20 19 19 19 19 19 19 19 18 18 18 18 18 18 18 18 18 18 18 18 18 18 18 18 18 18 18 18 18 18 18 18 17 17 17 17
22 22 21 21 20 20 20 20 19 19 19 19 19 19 19 19 19 19 19 18 18 18 18 18 18 18 18 18 18 18 18 18 18 18 18 18 18 18 18 17 17 17 17
22 21 21 20 20 20 20 20 19 19 19 19 19 19 19 19 19 19 19 19 19 18 18 18 18 18 18 18 18 18 18 18 18 18 18 18 17 17 17 17 17 17 17
22 21 21 20 20 20 19 20 20 19 19 19 19 19 19 19 19 19 19 19 19 19 18 18 18 18 18 18 18 18 18 18 18 18 18 17 17 17 17 17 17 17 17
21 21 21 20 20 20 19 19 19 20 20 19 19 19 19 19 19 19 19 19 19 19 19 19 18 18 18 18 18 18 18 18 18 18 17 17 17 17 17 17 17 17 17
21 21 20 20 20 19 19 19 19 19 19 19 19 19 19 19 19 19 19 19 19 19 19 19 18 18 18 18 18 18 18 18 18 18 17 17 17 17 17 17 17 17 17
21 20 20 20 20 19 19 19 19 19 19 19 19 19 19 19 19 19 19 19 19 19 19 18 18 18 18 18 18 18 18 18 18 18 17 17 17 17 17 17 17 17 16
21 20 20 20 20 19 19 19 19 19 19 19 19 19 19 19 19 19 19 19 19 19 19 19 19 18 18 18 18 18 18 18 18 18 17 17 17 17 17 17 16 16 16
21 20 20 20 20 19 19 19 19 19 19 19 19 19 19 19 19 19 19 19 19 19 19 19 18 18 18 18 18 18 18 18 18 18 18 17 17 17 17 17 16 16 16
21 21 20 20 20 20 19 19 19 19 19 19 19 19 19 19 19 19 19 19 18 18 19 19 19 19 19 19 18 18 18 18 17 18 17 17 17 17 17 16 16 16 16
22 21 20 20 20 20 19 19 19 19 19 19 19 19 19 19 19 19 19 19 18 18 19 19 19 18 18 18 19 19 19 18 18 17 17 17 17 17 17 17 16 16 16
22 21 21 20 20 20 19 19 19 19 19 19 19 19 19 19 18 18 18 18 18 18 18 18 18 18 18 18 18 19 18 18 18 18 17 17 17 17 17 17 16 16 16
22 22 21 20 20 20 20 19 19 19 19 19 19 19 19 19 18 18 18 18 18 18 18 18 18 18 18 18 19 19 18 18 18 18 18 17 17 17 17 16 16 16 16
Wind_Speed
9 10 11 10 11 11 11 11 12 12 12 12 13 13 13 14 14 15 15 15 15 15 15 14 13 13 13 13 13 15 15 15 16 16 16 17 16 15 14 13 13 14 16
11 11 12 11 11 12 12 12 12 12 12 12 13 13 13 13 14 14 15 15 15 15 15 14 13 13 13 13 14 15 15 15 15 15 16 15 15 14 13 12 13 13 15
12 12 12 11 13 12 12 12 12 12 12 13 13 13 13 13 14 14 14 14 14 14 14 14 13 13 13 13 14 14 14 13 13 13 13 12 13 14 14 14 15 14 14
12 12 12 13 13 13 12 12 12 12 12 12 12 12 13 13 13 14 14 14 14 15 14 14 13 13 13 13 13 13 12 11 11 10 8 10 12 14 14 14 13 14 13
12 13 14 15 14 13 12 12 11 11 11 12 12 12 13 13 13 13 14 14 14 14 14 14 13 13 13 12 12 11 10 9 8 6 6 10 12 14 14 13 13 13 13
12 14 15 15 14 13 13 12 11 11 11 11 11 12 12 13 13 13 13 14 14 13 13 13 13 12 12 11 11 9 8 6 5 5 9 12 12 14 14 13 13 12 12
11 14 15 15 14 13 12 12 11 10 10 10 11 11 12 12 12 12 12 13 13 13 12 12 12 11 10 9 9 8 6 4 4 4 9 13 13 14 13 12 11 11 11
11 14 15 15 15 13 12 11 10 10 9 11 11 11 11 12 12 12 12 12 12 12 12 12 11 10 8 7 6 5 4 3 4 6 10 13 14 14 13 12 11 10 10
10 13 13 13 13 13 12 11 10 9 10 10 10 10 10 11 12 12 11 11 11 11 10 10 9 9 7 6 4 3 3 3 1 5 10 11 13 13 12 11 10 9 9
9 10 10 12 12 12 12 11 10 9 10 10 10 10 10 11 11 11 11 11 11 10 10 9 8 8 6 5 4 4 3 2 2 6 9 11 13 13 11 10 9 9 9
8 7 8 9 10 10 11 11 10 9 8 9 9 10 9 8 9 10 10 11 11 10 9 8 7 7 6 5 5 5 3 2 4 7 9 12 13 12 11 10 9 9 9
7 7 7 7 7 8 8 9 8 8 8 6 6 8 7 6 7 9 11 11 10 9 8 8 8 7 6 5 6 6 3 3 4 8 10 13 12 12 11 10 9 9 9
7 7 8 7 6 6 5 6 5 5 7 7 6 6 6 6 6 7 7 9 8 8 6 7 8 6 6 4 3 4 3 2 6 8 10 13 12 11 10 9 9 9 8
7 7 7 8 7 6 4 4 4 4 4 5 6 5 5 3 3 4 3 5 6 5 5 4 4 4 4 4 3 3 3 4 7 9 10 11 11 10 9 9 8 8 8
7 7 8 7 7 6 4 1 4 3 3 5 5 4 4 4 3 3 2 2 4 5 5 3 3 2 2 2 2 3 3 6 7 9 9 10 10 9 9 9 8 8 8
6 7 8 8 7 6 4 2 2 3 3 5 5 6 5 4 4 3 3 2 2 3 4 3 2 2 2 2 2 3 3 5 7 8 10 10 9 9 8 8 8 7 7
7 7 6 8 7 5 4 2 3 3 5 4 5 6 5 5 4 3 3 3 2 4 5 4 3 2 2 3 2 3 3 4 6 7 9 9 9 8 8 8 7 7 7
7 6 4 6 8 6 3 1 2 2 3 4 5 6 5 5 4 3 3 2 3 4 3 3 2 2 2 2 2 2 3 4 4 5 6 7 8 8 8 8 7 7 7
7 6 5 6 7 5 3 2 2 3 3 3 5 5 4 4 4 3 2 2 3 2 2 2 3 2 2 1 2 2 2 3 3 4 4 5 7 8 8 9 9 8 7
8 6 6 6 6 4 3 2 2 3 3 3 4 4 4 4 3 3 3 3 2 2 1 2 3 2 2 1 1 2 2 2 2 3 3 3 4 7 9 10 9 7 7
8 7 6 5 5 3 3 2 2 2 2 3 3 4 4 4 4 3 2 3 2 3 2 3 2 2 2 2 2 2 2 1 2 2 3 3 3 4 6 8 8 7 7
8 7 6 5 5 3 3 1 1 1 1 3 3 4 3 4 3 4 3 2 2 3 2 2 2 1 1 2 2 2 1 0 0 2 2 3 3 4 5 7 6 6 6
9 8 7 6 5 4 3 2 2 2 1 2 4 3 2 3 3 3 4 2 2 3 3 2 2 2 1 0 1 1 1 1 0 1 1 2 2 2 2 4 6 6 7
9 9 7 7 5 5 3 2 2 2 2 2 2 3 3 2 2 3 3 2 1 2 3 2 2 1 2 1 0 1 1 3 2 1 0 2 2 2 2 2 4 6 6
10 9 8 7 6 5 3 3 2 2 2 2 3 4 3 2 2 3 3 1 1 1 2 1 2 1 1 1 0 1 1 1 2 2 1 1 1 1 2 2 2 4 6
10 10 10 9 7 6 4 3 2 2 2 2 2 3 2 2 2 3 3 2 1 0 1 2 1 2 1 0 1 0 1 1 1 1 2 2 2 1 2 2 2 3 5
Wind_Direction
96 101 101 102 100 100 98 95 91 90 89 89 90 92 92 93 95 95 99 106 109 109 107 107 105 104 105 107 109 113 113 113 115 117 118 117 118 119 122 125 125 116 118
102 104 103 106 106 102 98 96 95 93 91 92 92 93 92 93 96 96 100 104 108 111 110 110 109 106 109 112 115 118 119 121 123 123 123 121 120 121 121 117 114 119 123
106 108 106 103 107 103 98 96 97 96 93 92 93 94 94 96 97 99 102 104 107 112 112 112 112 108 109 115 120 122 124 126 129 132 135 130 124 121 119 118 118 122 125
105 105 102 108 108 104 100 98 98 98 95 95 96 97 98 98 100 99 101 102 104 109 109 109 111 109 108 114 122 124 127 132 139 143 145 137 128 125 124 124 124 126 126
102 106 107 110 109 106 103 101 98 98 99 100 100 100 100 100 102 102 102 102 104 108 107 107 108 106 107 112 118 124 130 137 147 147 123 116 118 128 129 129 128 130 129
112 111 114 114 111 108 104 101 99 99 101 104 105 104 104 104 105 104 104 105 107 109 109 109 108 109 109 113 120 127 134 146 161 142 131 122 121 131 132 129 130 132 133
114 114 122 120 117 113 109 107 105 104 105 110 112 110 109 110 110 110 108 108 110 111 111 112 114 114 115 118 126 135 148 171 167 124 112 115 125 133 133 131 131 133 135
116 119 126 127 123 120 117 113 112 112 115 118 117 115 113 113 113 111 112 112 113 114 114 115 119 121 122 126 136 153 173 196 139 122 110 117 130 133 133 136 137 139 140
113 121 129 131 130 128 126 124 123 123 125 128 125 123 121 121 121 120 121 122 122 122 123 125 129 131 133 141 155 186 220 234 121 123 118 122 133 136 137 139 145 148 148
116 119 131 134 137 137 134 137 135 134 134 139 139 137 134 131 132 133 134 137 138 136 136 139 142 144 148 161 185 218 248 290 148 120 112 130 138 141 145 149 151 153 156
112 115 122 126 139 142 138 142 148 147 145 149 150 153 153 145 142 141 137 142 145 147 148 151 155 160 167 183 206 223 243 227 121 104 113 137 143 146 151 155 156 158 158
116 120 116 117 124 132 132 140 151 152 148 156 145 150 162 152 145 135 143 150 153 156 160 167 164 165 186 187 199 213 220 161 113 109 123 139 141 144 148 154 157 158 159
114 117 120 116 120 120 121 137 148 146 146 153 147 149 150 148 136 132 144 152 163 168 169 160 172 184 181 167 160 170 183 124 103 106 126 137 142 146 148 151 154 156 158
107 107 105 111 108 103 107 128 138 138 146 141 150 155 146 142 133 136 143 157 165 167 159 164 168 173 169 165 153 142 149 108 100 107 122 134 138 146 150 151 153 159 166
113 108 98 100 103 104 99 92 110 120 140 134 138 130 134 137 135 136 144 158 161 155 161 164 155 148 129 138 136 135 108 105 111 112 123 134 141 148 154 157 160 164 172
113 102 104 108 108 112 115 99 114 136 127 131 144 143 139 136 141 146 154 160 156 152 152 151 142 135 140 121 130 121 109 108 115 122 131 135 141 146 152 161 167 170 171
109 100 102 112 108 107 114 141 140 147 139 134 128 126 130 129 134 150 154 156 165 164 155 150 159 151 164 153 137 124 112 110 120 127 135 142 148 153 154 155 160 166 171
109 103 99 110 110 104 98 86 82 103 115 121 124 127 130 134 149 159 152 160 169 160 149 149 144 140 139 129 133 142 133 127 131 133 139 149 158 160 162 161 162 169 174
113 113 104 90 102 107 102 93 106 95 92 112 119 116 132 144 146 157 140 141 154 140 154 152 124 141 135 132 144 149 157 149 141 141 142 151 153 150 156 162 165 165 172
117 113 110 104 100 112 110 93 96 96 114 111 108 123 135 136 139 141 137 141 134 114 114 107 122 142 154 170 140 133 145 134 140 142 149 132 136 156 159 157 158 160 168
127 124 121 113 110 117 111 114 112 115 112 112 116 120 129 128 124 132 101 126 127 118 124 122 136 155 144 122 102 88 103 129 147 140 138 134 133 136 127 133 146 151 153
137 135 129 128 127 129 121 121 121 112 118 113 101 105 121 123 130 136 119 133 118 127 131 135 150 138 143 146 152 140 123 101 21 131 146 150 141 135 134 136 136 141 143
149 150 149 137 137 133 129 135 103 98 68 92 107 114 113 121 128 107 118 126 127 145 145 164 162 158 162 139 83 135 142 143 114 95 114 114 122 124 132 130 138 143 150
157 154 138 138 138 136 139 132 134 125 102 91 107 116 116 115 112 102 113 116 111 113 139 184 162 169 154 178 150 65 123 136 153 145 175 122 136 140 157 145 135 139 138
163 157 149 142 138 136 145 142 138 107 116 110 104 117 125 124 126 121 123 124 112 125 143 124 121 142 125 159 173 124 101 112 143 162 167 155 139 168 161 150 132 131 135
165 161 157 148 146 150 156 151 152 135 93 91 88 103 142 145 150 144 139 126 121 140 129 131 143 140 115 57 7 22 118 132 165 157 169 173 164 168 158 150 139 129 132
Height
1493 1492 1493 1494 1494 1495 1496 1497 1497 1497 1498 1498 1499 1499 1500 1500 1501 1502 1503 1504 1506 1508 1509 1510 1511 1512 1513 1515 1516 1519 1521 1523 1525 1527 1530 1532 1534 1536 1538 1540 1541 1543 1544
1493 1493 1494 1494 1495 1496 1497 1498 1499 1499 1500 1500 1501 1502 1502 1503 1503 1504 1505 1507 1508 1510 1511 1512 1514 1514 1515 1517 1518 1521 1523 1525 1527 1529 1532 1534 1536 1538 1539 1541 1542 1544 1545
1494 1494 1495 1495 1496 1498 1499 1500 1500 1501 1502 1502 1503 1504 1505 1505 1506 1507 1508 1509 1510 1512 1513 1514 1515 1516 1517 1519 1520 1523 1525 1527 1529 1532 1534 1535 1537 1539 1540 1542 1543 1545 1547
1496 1496 1497 1497 1498 1499 1500 1501 1502 1503 1504 1505 1505 1506 1507 1508 1509 1510 1511 1512 1512 1514 1515 1516 1517 1518 1519 1521 1523 1525 1527 1530 1532 1534 1536 1537 1539 1541 1542 1543 1545 1546 1548
1497 1498 1499 1499 1500 1501 1502 1503 1504 1505 1506 1507 1508 1509 1510 1510 1512 1513 1513 1514 1515 1516 1518 1519 1520 1520 1522 1523 1525 1527 1530 1532 1534 1536 1538 1539 1540 1542 1543 1544 1546 1547 1548
1500 1500 1501 1501 1502 1503 1504 1505 1506 1507 1508 1509 1510 1511 1512 1513 1514 1515 1516 1517 1518 1519 1520 1522 1523 1524 1525 1526 1528 1530 1532 1534 1536 1538 1539 1540 1542 1543 1544 1545 1546 1547 1549
1502 1502 1503 1504 1504 1505 1506 1507 1508 1509 1509 1510 1512 1513 1514 1515 1516 1517 1518 1519 1520 1522 1523 1524 1525 1526 1528 1529 1531 1532 1534 1536 1538 1539 1541 1541 1542 1543 1545 1546 1547 1548 1550
1503 1504 1504 1505 1506 1507 1508 1509 1510 1511 1511 1512 1514 1515 1516 1517 1518 1519 1520 1522 1523 1524 1526 1527 1528 1529 1530 1532 1533 1535 1536 1538 1539 1541 1541 1542 1543 1544 1545 1546 1547 1549 1550
1505 1506 1506 1507 1508 1509 1510 1511 1512 1513 1513 1514 1516 1517 1518 1519 1520 1521 1523 1524 1525 1526 1528 1529 1530 1532 1533 1534 1535 1537 1538 1539 1540 1541 1542 1542 1544 1544 1545 1546 1548 1549 1551
1507 1508 1508 1509 1509 1510 1511 1512 1514 1514 1515 1516 1517 1519 1520 1521 1523 1524 1525 1526 1527 1529 1530 1531 1533 1534 1535 1536 1537 1539 1540 1541 1541 1542 1542 1543 1544 1545 1546 1547 1548 1549 1551
1509 1509 1510 1511 1511 1513 1513 1514 1515 1516 1517 1518 1519 1520 1521 1523 1524 1525 1527 1528 1529 1530 1532 1533 1534 1535 1536 1538 1539 1540 1541 1541 1542 1542 1542 1543 1544 1545 1546 1547 1548 1549 1551
1510 1511 1511 1512 1513 1514 1515 1515 1516 1517 1518 1519 1520 1522 1523 1524 1526 1527 1528 1529 1530 1532 1533 1534 1536 1536 1537 1539 1540 1540 1541 1542 1543 1542 1543 1543 1544 1545 1546 1547 1548 1550 1551
1511 1512 1512 1513 1513 1514 1516 1516 1518 1519 1519 1520 1521 1523 1524 1525 1527 1528 1529 1530 1531 1533 1534 1536 1536 1537 1538 1540 1541 1541 1542 1543 1543 1542 1543 1544 1544 1545 1546 1547 1548 1549 1551
1512 1513 1513 1513 1514 1514 1516 1517 1518 1519 1520 1521 1522 1524 1525 1526 1527 1529 1530 1531 1532 1534 1535 1536 1537 1538 1540 1541 1541 1542 1542 1543 1543 1543 1543 1544 1544 1545 1546 1547 1548 1549 1550
1513 1514 1514 1514 1514 1515 1516 1518 1519 1520 1521 1522 1523 1524 1525 1526 1527 1529 1530 1532 1533 1534 1535 1537 1538 1539 1540 1541 1541 1542 1543 1543 1543 1543 1544 1544 1545 1546 1546 1547 1548 1549 1550
1515 1515 1515 1515 1516 1516 1517 1518 1519 1520 1521 1522 1523 1524 1525 1526 1527 1529 1531 1532 1533 1535 1536 1537 1538 1539 1540 1540 1541 1542 1543 1543 1544 1544 1544 1545 1545 1546 1546 1547 1547 1548 1549
1516 1516 1516 1517 1517 1517 1518 1518 1519 1521 1521 1522 1524 1525 1526 1527 1528 1529 1531 1532 1533 1535 1536 1537 1538 1539 1540 1541 1541 1542 1543 1543 1544 1544 1544 1544 1545 1545 1546 1546 1547 1548 1549
1516 1517 1518 1518 1518 1518 1519 1519 1520 1521 1522 1523 1524 1525 1526 1527 1528 1530 1531 1532 1533 1535 1536 1537 1538 1539 1540 1540 1541 1542 1543 1543 1544 1544 1545 1544 1545 1545 1546 1546 1546 1547 1548
1517 1518 1519 1519 1519 1520 1520 1520 1521 1522 1523 1524 1525 1526 1527 1527 1528 1530 1531 1533 1534 1535 1536 1537 1538 1538 1539 1540 1541 1542 1543 1543 1544 1544 1544 1545 1545 1545 1545 1545 1546 1546 1547
1518 1519 1520 1520 1520 1521 1521 1521 1522 1523 1524 1525 1526 1526 1527 1528 1529 1530 1531 1533 1534 1535 1536 1537 1538 1539 1539 1540 1541 1542 1543 1543 1543 1544 1544 1545 1545 1545 1545 1545 1545 1546 1546
1518 1519 1520 1521 1521 1522 1522 1523 1524 1524 1525 1526 1526 1527 1528 1528 1529 1530 1532 1533 1534 1535 1536 1537 1538 1539 1540 1540 1541 1542 1543 1543 1543 1544 1544 1544 1545 1545 1545 1545 1545 1545 1545
1518 1519 1520 1521 1522 1523 1523 1524 1525 1526 1526 1527 1527 1527 1528 1529 1530 1531 1531 1533 1534 1535 1535 1536 1537 1538 1540 1540 1541 1541 1542 1544 1543 1544 1544 1544 1544 1545 1545 1545 1545 1545 1545
1518 1519 1520 1521 1522 1523 1524 1525 1526 1526 1527 1528 1528 1528 1529 1530 1530 1531 1532 1533 1534 1534 1535 1536 1537 1538 1539 1540 1541 1542 1542 1542 1543 1544 1544 1544 1544 1544 1545 1545 1545 1545 1545
1517 1519 1520 1521 1522 1523 1524 1525 1526 1527 1528 1529 1529 1529 1530 1530 1531 1532 1532 1533 1534 1534 1535 1536 1537 1538 1539 1539 1540 1541 1541 1542 1542 1543 1544 1544 1544 1544 1545 1545 1545 1544 1544
1517 1518 1520 1521 1522 1523 1524 1526 1527 1528 1529 1530 1530 1530 1530 1531 1531 1532 1533 1533 1534 1535 1535 1536 1537 1538 1538 1539 1539 1540 1540 1541 1542 1542 1543 1543 1544 1544 1544 1544 1544 1544 1544
1516 1518 1519 1520 1521 1523 1524 1526 1527 1528 1529 1530 1530 1530 1531 1532 1532 1532 1533 1533 1534 1534 1535 1535 1536 1537 1537 1538 1539 1539 1540 1540 1541 1541 1542 1542 1542 1543 1543 1543 1543 1543 1543